| time (UTC) | temp F | wind direction | speed MPH | gust MPH | rain 1hr in | rain 24hr in | rain mn in | humidity % | barometer mb |
| 20260509031928 | 71 | 53 | 6.0 | 0.0 | 0.00 | 0.00 | 0.00 | 58 | 1015.2 |
| 20260509031429 | 71 | 260 | 6.0 | 0.0 | 0.00 | 0.00 | 0.00 | 57 | 1015.2 |
| 20260509030926 | 72 | 261 | 5.0 | 0.0 | 0.00 | 0.00 | 0.00 | 57 | 1015.2 |
| 20260509030427 | 72 | 187 | 5.0 | 0.0 | 0.00 | 0.00 | 0.00 | 56 | 1015.2 |
| 20260509025926 | 72 | 125 | 5.0 | 0.0 | 0.00 | 0.00 | 0.00 | 56 | 1015.2 |
| 20260509025428 | 73 | 115 | 8.0 | 0.0 | 0.00 | 0.00 | 0.00 | 56 | 1015.2 |
| 20260509024928 | 73 | 155 | 7.0 | 0.0 | 0.00 | 0.00 | 0.00 | 55 | 1015.2 |
| 20260509024428 | 74 | 108 | 9.0 | 0.0 | 0.00 | 0.00 | 0.00 | 54 | 1014.9 |
| 20260509023925 | 74 | 119 | 9.0 | 0.0 | 0.00 | 0.00 | 0.00 | 54 | 1014.9 |
| 20260509023428 | 75 | 107 | 9.0 | 0.0 | 0.00 | 0.00 | 0.00 | 53 | 1014.9 |
| 20260509022927 | 76 | 103 | 9.0 | 0.0 | 0.00 | 0.00 | 0.00 | 52 | 1014.9 |
| 20260509022427 | 77 | 201 | 10.0 | 0.0 | 0.00 | 0.00 | 0.00 | 50 | 1014.6 |
| 20260509021924 | 78 | 152 | 6.0 | 0.0 | 0.00 | 0.00 | 0.00 | 48 | 1014.6 |
| 20260509021426 | 79 | 160 | 6.0 | 0.0 | 0.00 | 0.00 | 0.00 | 47 | 1014.6 |
| 20260509020927 | 79 | 76 | 4.0 | 0.0 | 0.00 | 0.00 | 0.00 | 45 | 1014.2 |
| 20260509020424 | 80 | 355 | 8.0 | 0.0 | 0.00 | 0.00 | 0.00 | 44 | 1014.2 |
| 20260509015924 | 80 | 90 | 8.0 | 0.0 | 0.00 | 0.00 | 0.00 | 44 | 1014.2 |
| 20260509015423 | 80 | 328 | 8.0 | 0.0 | 0.00 | 0.00 | 0.00 | 44 | 1014.2 |
| 20260509014926 | 81 | 342 | 4.0 | 0.0 | 0.00 | 0.00 | 0.00 | 42 | 1014.2 |
| 20260509014425 | 81 | 304 | 5.0 | 0.0 | 0.00 | 0.00 | 0.00 | 42 | 1013.9 |
| 20260509013923 | 81 | 265 | 8.0 | 0.0 | 0.00 | 0.00 | 0.00 | 42 | 1013.9 |
| 20260509013427 | 82 | 301 | 8.0 | 0.0 | 0.00 | 0.00 | 0.00 | 42 | 1013.9 |
| 20260509012924 | 82 | 297 | 7.0 | 0.0 | 0.00 | 0.00 | 0.00 | 41 | 1013.9 |
| 20260509012425 | 83 | 340 | 6.0 | 0.0 | 0.00 | 0.00 | 0.00 | 41 | 1013.9 |
| 20260509011925 | 83 | 33 | 7.0 | 0.0 | 0.00 | 0.00 | 0.00 | 40 | 1013.9 |
| 20260509011424 | 84 | 257 | 8.0 | 0.0 | 0.00 | 0.00 | 0.00 | 40 | 1013.9 |
| 20260509010923 | 85 | 191 | 11.0 | 0.0 | 0.00 | 0.00 | 0.00 | 39 | 1013.9 |
| 20260509010423 | 86 | 265 | 7.0 | 0.0 | 0.00 | 0.00 | 0.00 | 38 | 1013.9 |
| 20260509005925 | 86 | 2 | 7.0 | 0.0 | 0.00 | 0.00 | 0.00 | 38 | 1013.9 |
| 20260509005423 | 87 | 342 | 7.0 | 0.0 | 0.00 | 0.00 | 0.00 | 37 | 1013.9 |
| 20260509004923 | 87 | 354 | 7.0 | 0.0 | 0.00 | 0.00 | 0.00 | 36 | 1013.9 |
| 20260509004422 | 87 | 324 | 7.0 | 0.0 | 0.00 | 0.00 | 0.00 | 35 | 1013.9 |
| 20260509003923 | 88 | 338 | 5.0 | 0.0 | 0.00 | 0.00 | 0.00 | 35 | 1013.9 |
| 20260509003424 | 87 | 253 | 10.0 | 0.0 | 0.00 | 0.00 | 0.00 | 35 | 1013.9 |
| 20260509002923 | 88 | 318 | 10.0 | 0.0 | 0.00 | 0.00 | 0.00 | 34 | 1013.9 |
| 20260509002423 | 88 | 284 | 8.0 | 0.0 | 0.00 | 0.00 | 0.00 | 33 | 1013.9 |
| 20260509001923 | 89 | 349 | 8.0 | 0.0 | 0.00 | 0.00 | 0.00 | 32 | 1013.9 |
| 20260509001423 | 89 | 352 | 9.0 | 0.0 | 0.00 | 0.00 | 0.00 | 32 | 1013.9 |
| 20260509000922 | 89 | 314 | 9.0 | 0.0 | 0.00 | 0.00 | 0.00 | 32 | 1013.9 |
| 20260509000425 | 90 | 340 | 9.0 | 0.0 | 0.00 | 0.00 | 0.00 | 31 | 1013.9 |
| 20260508235926 | 89 | 236 | 10.0 | 0.0 | 0.00 | 0.00 | 0.00 | 31 | 1013.9 |
| 20260508235423 | 89 | 319 | 14.0 | 0.0 | 0.00 | 0.00 | 0.00 | 31 | 1013.9 |
| 20260508234921 | 90 | 4 | 11.0 | 0.0 | 0.00 | 0.00 | 0.00 | 30 | 1013.9 |
| 20260508234421 | 90 | 297 | 12.0 | 0.0 | 0.00 | 0.00 | 0.00 | 28 | 1013.9 |
| 20260508233920 | 90 | 314 | 15.0 | 0.0 | 0.00 | 0.00 | 0.00 | 28 | 1013.9 |
| 20260508233420 | 90 | 315 | 15.0 | 0.0 | 0.00 | 0.00 | 0.00 | 28 | 1013.9 |
| 20260508232919 | 90 | 300 | 12.0 | 0.0 | 0.00 | 0.00 | 0.00 | 28 | 1013.9 |
| 20260508232420 | 91 | 310 | 12.0 | 0.0 | 0.00 | 0.00 | 0.00 | 27 | 1013.9 |
| 20260508231921 | 92 | 328 | 9.0 | 0.0 | 0.00 | 0.00 | 0.00 | 28 | 1013.9 |
| 20260508231419 | 91 | 25 | 14.0 | 0.0 | 0.00 | 0.00 | 0.00 | 28 | 1013.9 |
| 20260508230920 | 90 | 288 | 15.0 | 0.0 | 0.00 | 0.00 | 0.00 | 29 | 1013.9 |
| 20260508230419 | 90 | 332 | 15.0 | 0.0 | 0.00 | 0.00 | 0.00 | 29 | 1013.9 |
| 20260508225921 | 91 | 294 | 10.0 | 0.0 | 0.00 | 0.00 | 0.00 | 28 | 1013.9 |
| 20260508225418 | 91 | 315 | 12.0 | 0.0 | 0.00 | 0.00 | 0.00 | 30 | 1013.9 |
| 20260508224918 | 91 | 331 | 13.0 | 0.0 | 0.00 | 0.00 | 0.00 | 30 | 1014.2 |
| 20260508224418 | 91 | 328 | 15.0 | 0.0 | 0.00 | 0.00 | 0.00 | 30 | 1014.2 |
| 20260508223917 | 91 | 326 | 15.0 | 0.0 | 0.00 | 0.00 | 0.00 | 30 | 1014.2 |
| 20260508223416 | 91 | 314 | 12.0 | 0.0 | 0.00 | 0.00 | 0.00 | 29 | 1014.2 |
| 20260508222916 | 92 | 349 | 13.0 | 0.0 | 0.00 | 0.00 | 0.00 | 29 | 1014.2 |
| 20260508222418 | 92 | 0 | 10.0 | 0.0 | 0.00 | 0.00 | 0.00 | 29 | 1014.2 |
| 20260508221917 | 92 | 345 | 11.0 | 0.0 | 0.00 | 0.00 | 0.00 | 29 | 1014.2 |
| 20260508221418 | 92 | 345 | 15.0 | 0.0 | 0.00 | 0.00 | 0.00 | 28 | 1014.2 |
| 20260508220842 | 92 | 312 | 15.0 | 0.0 | 0.00 | 0.00 | 0.00 | 28 | 1014.6 |
| 20260508220417 | 92 | 319 | 9.0 | 0.0 | 0.00 | 0.00 | 0.00 | 29 | 1014.6 |
| 20260508215916 | 92 | 343 | 13.0 | 0.0 | 0.00 | 0.00 | 0.00 | 30 | 1014.6 |
| 20260508215416 | 92 | 306 | 12.0 | 0.0 | 0.00 | 0.00 | 0.00 | 30 | 1014.6 |
| 20260508214917 | 93 | 29 | 10.0 | 0.0 | 0.00 | 0.00 | 0.00 | 29 | 1014.6 |
| 20260508214417 | 92 | 311 | 13.0 | 0.0 | 0.00 | 0.00 | 0.00 | 30 | 1014.6 |
| 20260508213917 | 92 | 299 | 12.0 | 0.0 | 0.00 | 0.00 | 0.00 | 30 | 1014.9 |
| 20260508213416 | 92 | 317 | 12.0 | 0.0 | 0.00 | 0.00 | 0.00 | 29 | 1014.9 |
| 20260508212915 | 94 | 87 | 9.0 | 0.0 | 0.00 | 0.00 | 0.00 | 28 | 1014.9 |
| 20260508212416 | 93 | 303 | 10.0 | 0.0 | 0.00 | 0.00 | 0.00 | 28 | 1014.9 |
| 20260508211915 | 91 | 334 | 10.0 | 0.0 | 0.00 | 0.00 | 0.00 | 29 | 1014.9 |
| 20260508211343 | 91 | 20 | 13.0 | 0.0 | 0.00 | 0.00 | 0.00 | 29 | 1014.9 |
| 20260508210915 | 92 | 9 | 11.0 | 0.0 | 0.00 | 0.00 | 0.00 | 29 | 1014.9 |
| 20260508210415 | 92 | 288 | 7.0 | 0.0 | 0.00 | 0.00 | 0.00 | 28 | 1015.2 |
| 20260508205916 | 93 | 340 | 7.0 | 0.0 | 0.00 | 0.00 | 0.00 | 27 | 1015.2 |
| 20260508205416 | 92 | 335 | 8.0 | 0.0 | 0.00 | 0.00 | 0.00 | 29 | 1015.2 |
| 20260508204913 | 90 | 137 | 10.0 | 0.0 | 0.00 | 0.00 | 0.00 | 30 | 1015.6 |
| 20260508204418 | 90 | 82 | 10.0 | 0.0 | 0.00 | 0.00 | 0.00 | 31 | 1015.6 |
| 20260508203914 | 91 | 45 | 7.0 | 0.0 | 0.00 | 0.00 | 0.00 | 30 | 1015.6 |
| 20260508203415 | 91 | 191 | 7.0 | 0.0 | 0.00 | 0.00 | 0.00 | 30 | 1015.6 |
| 20260508202913 | 91 | 72 | 7.0 | 0.0 | 0.00 | 0.00 | 0.00 | 29 | 1015.6 |
| 20260508202414 | 91 | 139 | 4.0 | 0.0 | 0.00 | 0.00 | 0.00 | 30 | 1015.9 |
| 20260508201913 | 91 | 311 | 4.0 | 0.0 | 0.00 | 0.00 | 0.00 | 30 | 1015.9 |
| 20260508201413 | 90 | 343 | 7.0 | 0.0 | 0.00 | 0.00 | 0.00 | 32 | 1015.9 |
| 20260508200915 | 89 | 327 | 6.0 | 0.0 | 0.00 | 0.00 | 0.00 | 34 | 1015.9 |
| 20260508200414 | 89 | 89 | 7.0 | 0.0 | 0.00 | 0.00 | 0.00 | 35 | 1015.9 |
| 20260508195916 | 89 | 158 | 7.0 | 0.0 | 0.00 | 0.00 | 0.00 | 35 | 1016.3 |
| 20260508195411 | 89 | 123 | 6.0 | 0.0 | 0.00 | 0.00 | 0.00 | 35 | 1016.3 |
| 20260508194913 | 89 | 190 | 5.0 | 0.0 | 0.00 | 0.00 | 0.00 | 37 | 1016.3 |
| 20260508194414 | 88 | 325 | 6.0 | 0.0 | 0.00 | 0.00 | 0.00 | 39 | 1016.3 |
| 20260508193912 | 87 | 72 | 7.0 | 0.0 | 0.00 | 0.00 | 0.00 | 39 | 1016.6 |
| 20260508193412 | 86 | 17 | 7.0 | 0.0 | 0.00 | 0.00 | 0.00 | 41 | 1016.6 |
| 20260508192912 | 87 | 14 | 6.0 | 0.0 | 0.00 | 0.00 | 0.00 | 40 | 1016.6 |
| 20260508192411 | 86 | 51 | 5.0 | 0.0 | 0.00 | 0.00 | 0.00 | 40 | 1016.6 |
| 20260508191913 | 86 | 75 | 5.0 | 0.0 | 0.00 | 0.00 | 0.00 | 41 | 1016.9 |
| 20260508191413 | 86 | 111 | 5.0 | 0.0 | 0.00 | 0.00 | 0.00 | 42 | 1016.9 |
| 20260508190915 | 85 | 352 | 6.0 | 0.0 | 0.00 | 0.00 | 0.00 | 42 | 1016.9 |
| 20260508190411 | 85 | 345 | 5.0 | 0.0 | 0.00 | 0.00 | 0.00 | 42 | 1016.9 |
| 20260508185912 | 85 | 82 | 5.0 | 0.0 | 0.00 | 0.00 | 0.00 | 42 | 1016.9 |
| 20260508185414 | 85 | 110 | 7.0 | 0.0 | 0.00 | 0.00 | 0.00 | 42 | 1016.9 |
| 20260508184911 | 84 | 55 | 7.0 | 0.0 | 0.00 | 0.00 | 0.00 | 42 | 1016.9 |
| 20260508184412 | 84 | 92 | 7.0 | 0.0 | 0.00 | 0.00 | 0.00 | 43 | 1016.9 |
| 20260508183912 | 84 | 224 | 5.0 | 0.0 | 0.00 | 0.00 | 0.00 | 44 | 1017.3 |
| 20260508183412 | 82 | 16 | 5.0 | 0.0 | 0.00 | 0.00 | 0.00 | 45 | 1017.3 |
| 20260508182914 | 81 | 62 | 6.0 | 0.0 | 0.00 | 0.00 | 0.00 | 45 | 1017.3 |
| 20260508182412 | 82 | 49 | 4.0 | 0.0 | 0.00 | 0.00 | 0.00 | 45 | 1017.3 |
| 20260508181914 | 82 | 136 | 6.0 | 0.0 | 0.00 | 0.00 | 0.00 | 45 | 1017.3 |
| 20260508181412 | 81 | 248 | 6.0 | 0.0 | 0.00 | 0.00 | 0.00 | 46 | 1017.3 |
| 20260508180916 | 81 | 115 | 6.0 | 0.0 | 0.00 | 0.00 | 0.00 | 48 | 1017.3 |
| 20260508180412 | 79 | 154 | 5.0 | 0.0 | 0.00 | 0.00 | 0.00 | 50 | 1017.3 |
| 20260508175911 | 79 | 82 | 6.0 | 0.0 | 0.00 | 0.00 | 0.00 | 50 | 1017.3 |
| 20260508175413 | 78 | 30 | 6.0 | 0.0 | 0.00 | 0.00 | 0.00 | 52 | 1017.3 |
| 20260508174914 | 77 | 110 | 5.0 | 0.0 | 0.00 | 0.00 | 0.00 | 54 | 1017.6 |
| 20260508174411 | 76 | 359 | 6.0 | 0.0 | 0.00 | 0.00 | 0.00 | 56 | 1017.6 |
| 20260508173913 | 75 | 114 | 7.0 | 0.0 | 0.00 | 0.00 | 0.00 | 58 | 1017.6 |
| 20260508173412 | 74 | 100 | 7.0 | 0.0 | 0.00 | 0.00 | 0.00 | 60 | 1017.6 |
| 20260508172923 | 73 | 92 | 7.0 | 0.0 | 0.00 | 0.00 | 0.00 | 61 | 1017.6 |
| 20260508172424 | 72 | 117 | 7.0 | 0.0 | 0.00 | 0.00 | 0.00 | 63 | 1017.6 |
| 20260508171921 | 71 | 48 | 6.0 | 0.0 | 0.00 | 0.00 | 0.00 | 64 | 1017.6 |
| 20260508171420 | 71 | 55 | 5.0 | 0.0 | 0.00 | 0.00 | 0.00 | 66 | 1017.6 |
| 20260508170921 | 70 | 14 | 6.0 | 0.0 | 0.00 | 0.00 | 0.00 | 67 | 1017.6 |
| 20260508170420 | 69 | 71 | 6.0 | 0.0 | 0.00 | 0.00 | 0.00 | 69 | 1017.6 |
| 20260508165920 | 68 | 104 | 6.0 | 0.0 | 0.00 | 0.00 | 0.00 | 71 | 1017.6 |
| 20260508165419 | 68 | 131 | 5.0 | 0.0 | 0.00 | 0.00 | 0.00 | 72 | 1017.6 |
| 20260508164922 | 68 | 284 | 5.0 | 0.0 | 0.00 | 0.00 | 0.00 | 73 | 1017.9 |
| 20260508164419 | 67 | 107 | 4.0 | 0.0 | 0.00 | 0.00 | 0.00 | 74 | 1017.9 |
| 20260508163919 | 66 | 107 | 4.0 | 0.0 | 0.00 | 0.00 | 0.00 | 75 | 1018.3 |
| 20260508163419 | 66 | 25 | 4.0 | 0.0 | 0.00 | 0.00 | 0.00 | 76 | 1018.3 |
| 20260508162920 | 66 | 178 | 0.0 | 0.0 | 0.00 | 0.00 | 0.00 | 77 | 1018.3 |
| 20260508162419 | 64 | 309 | 0.0 | 0.0 | 0.00 | 0.00 | 0.00 | 82 | 1018.3 |
| 20260508161918 | 63 | 120 | 0.0 | 0.0 | 0.00 | 0.00 | 0.00 | 86 | 1018.3 |
| 20260508161419 | 61 | 120 | 0.0 | 0.0 | 0.00 | 0.00 | 0.00 | 88 | 1018.3 |
| 20260508160920 | 60 | 111 | 4.0 | 0.0 | 0.00 | 0.00 | 0.00 | 90 | 1018.3 |
| 20260508160419 | 59 | 108 | 0.0 | 0.0 | 0.00 | 0.00 | 0.00 | 91 | 1018.3 |
| 20260508155920 | 59 | 109 | 1.0 | 0.0 | 0.00 | 0.00 | 0.00 | 92 | 1018.3 |
| 20260508155417 | 58 | 94 | 0.0 | 0.0 | 0.00 | 0.00 | 0.00 | 92 | 1018.3 |
| 20260508154916 | 58 | 317 | 0.0 | 0.0 | 0.00 | 0.00 | 0.00 | 93 | 1018.3 |
| 20260508154417 | 58 | 332 | 0.0 | 0.0 | 0.00 | 0.00 | 0.00 | 93 | 1018.3 |
| 20260508153917 | 58 | 47 | 0.0 | 0.0 | 0.00 | 0.00 | 0.00 | 94 | 1018.3 |
| 20260508153420 | 57 | 102 | 0.0 | 0.0 | 0.00 | 0.00 | 0.00 | 94 | 1018.3 |
| 20260508152920 | 57 | 53 | 0.0 | 0.0 | 0.00 | 0.00 | 0.00 | 94 | 1018.3 |
| 20260508152416 | 57 | 284 | 0.0 | 0.0 | 0.00 | 0.00 | 0.00 | 94 | 1018.3 |
| 20260508151916 | 56 | 110 | 0.0 | 0.0 | 0.00 | 0.00 | 0.00 | 95 | 1018.3 |
| 20260508151417 | 56 | 94 | 0.0 | 0.0 | 0.00 | 0.00 | 0.00 | 94 | 1018.3 |
| 20260508150916 | 56 | 179 | 3.0 | 0.0 | 0.00 | 0.00 | 0.00 | 95 | 1018.3 |
| 20260508150416 | 56 | 163 | 0.0 | 0.0 | 0.00 | 0.00 | 0.00 | 95 | 1018.6 |
| 20260508145915 | 56 | 115 | 0.0 | 0.0 | 0.00 | 0.00 | 0.00 | 95 | 1018.6 |
| 20260508145416 | 56 | 24 | 0.0 | 0.0 | 0.00 | 0.00 | 0.00 | 95 | 1018.3 |
| 20260508144915 | 55 | 279 | 0.0 | 0.0 | 0.00 | 0.00 | 0.00 | 95 | 1018.6 |
| 20260508144416 | 55 | 205 | 0.0 | 0.0 | 0.00 | 0.00 | 0.00 | 95 | 1018.6 |
| 20260508143914 | 55 | 292 | 0.0 | 0.0 | 0.00 | 0.00 | 0.00 | 95 | 1018.6 |
| 20260508143417 | 55 | 128 | 0.0 | 0.0 | 0.00 | 0.00 | 0.00 | 95 | 1018.6 |
| 20260508142914 | 55 | 152 | 0.0 | 0.0 | 0.00 | 0.00 | 0.00 | 95 | 1018.6 |
| 20260508142415 | 55 | 305 | 0.0 | 0.0 | 0.00 | 0.00 | 0.00 | 95 | 1018.6 |
| 20260508141913 | 55 | 286 | 0.0 | 0.0 | 0.00 | 0.00 | 0.00 | 95 | 1018.6 |
| 20260508141338 | 55 | 297 | 0.0 | 0.0 | 0.00 | 0.00 | 0.00 | 95 | 1018.6 |
| 20260508140915 | 54 | 300 | 0.0 | 0.0 | 0.00 | 0.00 | 0.00 | 95 | 1018.6 |
| 20260508140414 | 54 | 293 | 0.0 | 0.0 | 0.00 | 0.00 | 0.00 | 95 | 1018.6 |
| 20260508135915 | 54 | 313 | 0.0 | 0.0 | 0.00 | 0.00 | 0.00 | 95 | 1018.6 |
| 20260508135414 | 54 | 310 | 0.0 | 0.0 | 0.00 | 0.00 | 0.00 | 95 | 1018.6 |
| 20260508134913 | 54 | 285 | 0.0 | 0.0 | 0.00 | 0.00 | 0.00 | 95 | 1018.6 |
| 20260508134414 | 53 | 302 | 0.0 | 0.0 | 0.00 | 0.00 | 0.00 | 95 | 1018.3 |
| 20260508133913 | 53 | 304 | 0.0 | 0.0 | 0.00 | 0.00 | 0.00 | 95 | 1018.3 |
| 20260508133412 | 53 | 321 | 0.0 | 0.0 | 0.00 | 0.00 | 0.00 | 95 | 1018.3 |
| 20260508132913 | 53 | 347 | 0.0 | 0.0 | 0.00 | 0.00 | 0.00 | 95 | 1018.3 |
| 20260508132414 | 53 | 331 | 0.0 | 0.0 | 0.00 | 0.00 | 0.00 | 94 | 1018.3 |
| 20260508131915 | 53 | 325 | 0.0 | 0.0 | 0.00 | 0.00 | 0.00 | 94 | 1018.3 |
| 20260508131416 | 53 | 322 | 0.0 | 0.0 | 0.00 | 0.00 | 0.00 | 94 | 1018.3 |
| 20260508130912 | 53 | 294 | 0.0 | 0.0 | 0.00 | 0.00 | 0.00 | 94 | 1018.3 |
| 20260508130412 | 53 | 359 | 0.0 | 0.0 | 0.00 | 0.00 | 0.00 | 94 | 1018.3 |
| 20260508125915 | 53 | 313 | 3.0 | 0.0 | 0.00 | 0.00 | 0.00 | 94 | 1018.3 |
| 20260508125414 | 53 | 10 | 0.0 | 0.0 | 0.00 | 0.00 | 0.00 | 94 | 1017.9 |
| 20260508124915 | 53 | 348 | 0.0 | 0.0 | 0.00 | 0.00 | 0.00 | 94 | 1017.9 |
| 20260508124415 | 53 | 298 | 0.0 | 0.0 | 0.00 | 0.00 | 0.00 | 94 | 1017.9 |
| 20260508123915 | 53 | 330 | 0.0 | 0.0 | 0.00 | 0.00 | 0.00 | 94 | 1017.6 |
| 20260508123415 | 53 | 293 | 0.0 | 0.0 | 0.00 | 0.00 | 0.00 | 93 | 1017.6 |
| 20260508122915 | 53 | 341 | 0.0 | 0.0 | 0.00 | 0.00 | 0.00 | 93 | 1017.6 |
| 20260508122413 | 52 | 314 | 4.0 | 0.0 | 0.00 | 0.00 | 0.00 | 93 | 1017.6 |
| 20260508121912 | 52 | 323 | 4.0 | 0.0 | 0.00 | 0.00 | 0.00 | 93 | 1017.6 |
| 20260508121341 | 52 | 356 | 0.0 | 0.0 | 0.00 | 0.00 | 0.00 | 92 | 1017.6 |
| 20260508120912 | 52 | 299 | 0.0 | 0.0 | 0.00 | 0.00 | 0.00 | 92 | 1017.6 |
| 20260508120412 | 52 | 294 | 0.0 | 0.0 | 0.00 | 0.00 | 0.00 | 92 | 1017.3 |
| 20260508115912 | 52 | 312 | 0.0 | 0.0 | 0.00 | 0.00 | 0.00 | 92 | 1017.3 |
| 20260508115412 | 53 | 238 | 0.0 | 0.0 | 0.00 | 0.00 | 0.00 | 92 | 1017.3 |
| 20260508114913 | 53 | 295 | 3.0 | 0.0 | 0.00 | 0.00 | 0.00 | 92 | 1017.3 |
| 20260508114413 | 53 | 315 | 3.0 | 0.0 | 0.00 | 0.00 | 0.00 | 92 | 1017.3 |
| 20260508113914 | 53 | 233 | 4.0 | 0.0 | 0.00 | 0.00 | 0.00 | 92 | 1017.3 |
| 20260508113411 | 53 | 309 | 0.0 | 0.0 | 0.00 | 0.00 | 0.00 | 91 | 1017.3 |
| 20260508112912 | 53 | 298 | 0.0 | 0.0 | 0.00 | 0.00 | 0.00 | 91 | 1017.3 |
| 20260508112412 | 53 | 229 | 0.0 | 0.0 | 0.00 | 0.00 | 0.00 | 91 | 1017.3 |
| 20260508111911 | 53 | 158 | 0.0 | 0.0 | 0.00 | 0.00 | 0.00 | 91 | 1017.3 |
| 20260508111415 | 53 | 150 | 0.0 | 0.0 | 0.00 | 0.00 | 0.00 | 91 | 1017.3 |
| 20260508110913 | 53 | 252 | 0.0 | 0.0 | 0.00 | 0.00 | 0.00 | 90 | 1017.3 |
| 20260508110349 | 52 | 2 | 0.0 | 0.0 | 0.00 | 0.00 | 0.00 | 89 | 1017.3 |
| 20260508105848 | 52 | 233 | 0.0 | 0.0 | 0.00 | 0.00 | 0.00 | 90 | 1017.3 |
| 20260508105347 | 52 | 267 | 0.0 | 0.0 | 0.00 | 0.00 | 0.00 | 89 | 1017.3 |
| 20260508104846 | 53 | 269 | 0.0 | 0.0 | 0.00 | 0.00 | 0.00 | 89 | 1017.3 |
| 20260508104346 | 53 | 274 | 0.0 | 0.0 | 0.00 | 0.00 | 0.00 | 89 | 1017.3 |
| 20260508103945 | 53 | 286 | 0.0 | 0.0 | 0.00 | 0.00 | 0.00 | 89 | 1017.3 |
| 20260508103444 | 53 | 276 | 0.0 | 0.0 | 0.00 | 0.00 | 0.00 | 89 | 1017.3 |
| 20260508102848 | 53 | 276 | 0.0 | 0.0 | 0.00 | 0.00 | 0.00 | 89 | 1017.3 |
| 20260508102347 | 54 | 281 | 0.0 | 0.0 | 0.00 | 0.00 | 0.00 | 89 | 1017.3 |
| 20260508101946 | 54 | 289 | 0.0 | 0.0 | 0.00 | 0.00 | 0.00 | 89 | 1017.3 |
| 20260508101344 | 54 | 306 | 0.0 | 0.0 | 0.00 | 0.00 | 0.00 | 89 | 1017.3 |
| 20260508100943 | 54 | 307 | 0.0 | 0.0 | 0.00 | 0.00 | 0.00 | 88 | 1017.6 |
| 20260508100345 | 54 | 309 | 0.0 | 0.0 | 0.00 | 0.00 | 0.00 | 88 | 1017.3 |
| 20260508095844 | 54 | 297 | 0.0 | 0.0 | 0.00 | 0.00 | 0.00 | 88 | 1017.3 |
| 20260508095447 | 54 | 310 | 0.0 | 0.0 | 0.00 | 0.00 | 0.00 | 88 | 1017.3 |
| 20260508094943 | 54 | 193 | 0.0 | 0.0 | 0.00 | 0.00 | 0.00 | 87 | 1017.3 |
| 20260508094444 | 54 | 170 | 0.0 | 0.0 | 0.00 | 0.00 | 0.00 | 87 | 1017.3 |
| 20260508093944 | 54 | 296 | 0.0 | 0.0 | 0.00 | 0.00 | 0.00 | 86 | 1017.3 |
| 20260508093342 | 55 | 234 | 0.0 | 0.0 | 0.00 | 0.00 | 0.00 | 86 | 1017.3 |
| 20260508092944 | 55 | 288 | 0.0 | 0.0 | 0.00 | 0.00 | 0.00 | 86 | 1017.3 |
| 20260508092442 | 55 | 282 | 0.0 | 0.0 | 0.00 | 0.00 | 0.00 | 86 | 1017.3 |
| 20260508091942 | 55 | 289 | 0.0 | 0.0 | 0.00 | 0.00 | 0.00 | 86 | 1017.3 |
| 20260508091444 | 55 | 289 | 0.0 | 0.0 | 0.00 | 0.00 | 0.00 | 85 | 1017.3 |
| 20260508090941 | 56 | 305 | 0.0 | 0.0 | 0.00 | 0.00 | 0.00 | 85 | 1017.3 |
| 20260508090443 | 56 | 315 | 0.0 | 0.0 | 0.00 | 0.00 | 0.00 | 85 | 1017.3 |
| 20260508085946 | 56 | 288 | 0.0 | 0.0 | 0.00 | 0.00 | 0.00 | 85 | 1017.3 |
| 20260508085441 | 57 | 282 | 0.0 | 0.0 | 0.00 | 0.00 | 0.00 | 85 | 1017.3 |
| 20260508084941 | 57 | 292 | 0.0 | 0.0 | 0.00 | 0.00 | 0.00 | 85 | 1017.3 |
| 20260508084440 | 57 | 303 | 0.0 | 0.0 | 0.00 | 0.00 | 0.00 | 85 | 1017.6 |
| 20260508083841 | 57 | 293 | 0.0 | 0.0 | 0.00 | 0.00 | 0.00 | 85 | 1017.6 |
| 20260508083440 | 57 | 318 | 0.0 | 0.0 | 0.00 | 0.00 | 0.00 | 84 | 1017.6 |
| 20260508082940 | 57 | 319 | 0.0 | 0.0 | 0.00 | 0.00 | 0.00 | 84 | 1017.6 |
| 20260508082439 | 58 | 274 | 0.0 | 0.0 | 0.00 | 0.00 | 0.00 | 83 | 1017.6 |
| 20260508081941 | 58 | 259 | 0.0 | 0.0 | 0.00 | 0.00 | 0.00 | 84 | 1017.6 |
| 20260508081442 | 58 | 242 | 0.0 | 0.0 | 0.00 | 0.00 | 0.00 | 83 | 1017.6 |
| 20260508080942 | 58 | 300 | 0.0 | 0.0 | 0.00 | 0.00 | 0.00 | 83 | 1017.6 |
| 20260508080441 | 58 | 292 | 0.0 | 0.0 | 0.00 | 0.00 | 0.00 | 83 | 1017.9 |
| 20260508075839 | 58 | 328 | 0.0 | 0.0 | 0.00 | 0.00 | 0.00 | 83 | 1017.9 |
| 20260508075441 | 59 | 317 | 0.0 | 0.0 | 0.00 | 0.00 | 0.00 | 83 | 1017.9 |
| 20260508074939 | 59 | 306 | 0.0 | 0.0 | 0.00 | 0.00 | 0.00 | 83 | 1017.9 |
| 20260508074337 | 59 | 315 | 0.0 | 0.0 | 0.00 | 0.00 | 0.00 | 82 | 1018.3 |
| 20260508073936 | 59 | 341 | 0.0 | 0.0 | 0.00 | 0.00 | 0.00 | 82 | 1018.3 |
| 20260508073438 | 59 | 251 | 0.0 | 0.0 | 0.00 | 0.00 | 0.00 | 81 | 1018.3 |
| 20260508072936 | 59 | 274 | 0.0 | 0.0 | 0.00 | 0.00 | 0.00 | 81 | 1018.3 |
| 20260508072436 | 60 | 294 | 0.0 | 0.0 | 0.00 | 0.00 | 0.00 | 80 | 1018.3 |
| 20260508071940 | 60 | 297 | 0.0 | 0.0 | 0.00 | 0.00 | 0.00 | 79 | 1018.3 |
| 20260508071437 | 60 | 304 | 0.0 | 0.0 | 0.00 | 0.00 | 0.00 | 79 | 1017.9 |
| 20260508070937 | 60 | 281 | 0.0 | 0.0 | 0.00 | 0.00 | 0.00 | 79 | 1017.9 |
| 20260508070436 | 61 | 301 | 3.0 | 0.0 | 0.00 | 0.00 | 0.00 | 78 | 1017.9 |
| 20260508065937 | 61 | 286 | 3.0 | 0.0 | 0.00 | 0.00 | 0.00 | 77 | 1017.9 |
| 20260508065435 | 62 | 3 | 0.0 | 0.0 | 0.00 | 0.00 | 0.00 | 77 | 1017.9 |
| 20260508064836 | 62 | 202 | 0.0 | 0.0 | 0.00 | 0.00 | 0.00 | 77 | 1017.9 |
| 20260508064435 | 62 | 236 | 2.0 | 0.0 | 0.00 | 0.00 | 0.00 | 76 | 1017.9 |
| 20260508063933 | 62 | 192 | 3.0 | 0.0 | 0.00 | 0.00 | 0.00 | 76 | 1017.9 |
| 20260508063437 | 63 | 339 | 5.0 | 0.0 | 0.00 | 0.00 | 0.00 | 76 | 1017.9 |
| 20260508062935 | 63 | 242 | 5.0 | 0.0 | 0.00 | 0.00 | 0.00 | 77 | 1017.9 |
| 20260508062434 | 62 | 264 | 5.0 | 0.0 | 0.00 | 0.00 | 0.00 | 77 | 1017.9 |
| 20260508061933 | 62 | 262 | 0.0 | 0.0 | 0.00 | 0.00 | 0.00 | 75 | 1017.6 |
| 20260508061435 | 62 | 267 | 0.0 | 0.0 | 0.00 | 0.00 | 0.00 | 74 | 1017.9 |
| 20260508060934 | 62 | 319 | 0.0 | 0.0 | 0.00 | 0.00 | 0.00 | 73 | 1017.6 |
| 20260508060434 | 63 | 134 | 0.0 | 0.0 | 0.00 | 0.00 | 0.00 | 73 | 1017.6 |
| 20260508055834 | 63 | 272 | 0.0 | 0.0 | 0.00 | 0.00 | 0.00 | 73 | 1017.6 |
| 20260508055434 | 63 | 279 | 0.0 | 0.0 | 0.00 | 0.00 | 0.00 | 73 | 1017.6 |
| 20260508054935 | 63 | 288 | 0.0 | 0.0 | 0.00 | 0.00 | 0.00 | 72 | 1017.6 |
| 20260508054434 | 63 | 239 | 0.0 | 0.0 | 0.00 | 0.00 | 0.00 | 72 | 1017.6 |
| 20260508053933 | 64 | 219 | 0.0 | 0.0 | 0.00 | 0.00 | 0.00 | 72 | 1017.6 |
| 20260508053431 | 64 | 176 | 0.0 | 0.0 | 0.00 | 0.00 | 0.00 | 71 | 1017.6 |
| 20260508052932 | 64 | 232 | 0.0 | 0.0 | 0.00 | 0.00 | 0.00 | 70 | 1017.6 |
| 20260508052433 | 64 | 280 | 0.0 | 0.0 | 0.00 | 0.00 | 0.00 | 71 | 1017.6 |
| 20260508051843 | 64 | 258 | 0.0 | 0.0 | 0.00 | 0.00 | 0.00 | 70 | 1017.6 |
| 20260508051341 | 64 | 284 | 0.0 | 0.0 | 0.00 | 0.00 | 0.00 | 71 | 1017.6 |
| 20260508050932 | 64 | 271 | 0.0 | 0.0 | 0.00 | 0.00 | 0.00 | 70 | 1017.6 |
| 20260508050337 | 65 | 285 | 0.0 | 0.0 | 0.00 | 0.00 | 0.00 | 69 | 1017.6 |
| 20260508045934 | 65 | 227 | 0.0 | 0.0 | 0.00 | 0.00 | 0.00 | 69 | 1017.6 |
| 20260508045431 | 65 | 256 | 0.0 | 0.0 | 0.00 | 0.00 | 0.00 | 68 | 1017.6 |
| 20260508044931 | 66 | 245 | 0.0 | 0.0 | 0.00 | 0.00 | 0.00 | 68 | 1017.3 |
| 20260508044430 | 66 | 216 | 0.0 | 0.0 | 0.00 | 0.00 | 0.00 | 68 | 1017.3 |
| 20260508043931 | 66 | 312 | 0.0 | 0.0 | 0.00 | 0.00 | 0.00 | 68 | 1017.3 |
| 20260508043431 | 66 | 297 | 0.0 | 0.0 | 0.00 | 0.00 | 0.00 | 66 | 1017.3 |
| 20260508042930 | 67 | 287 | 0.0 | 0.0 | 0.00 | 0.00 | 0.00 | 67 | 1017.3 |
| 20260508042430 | 67 | 317 | 0.0 | 0.0 | 0.00 | 0.00 | 0.00 | 67 | 1017.3 |
| 20260508041836 | 67 | 304 | 0.0 | 0.0 | 0.00 | 0.00 | 0.00 | 64 | 1016.9 |
| 20260508041430 | 67 | 322 | 0.0 | 0.0 | 0.00 | 0.00 | 0.00 | 64 | 1016.9 |
| 20260508040843 | 67 | 306 | 0.0 | 0.0 | 0.00 | 0.00 | 0.00 | 63 | 1016.9 |
| 20260508040432 | 68 | 358 | 0.0 | 0.0 | 0.00 | 0.00 | 0.00 | 61 | 1016.9 |
| 20260508035930 | 68 | 230 | 0.0 | 0.0 | 0.00 | 0.00 | 0.00 | 60 | 1016.6 |
| 20260508035428 | 68 | 303 | 0.0 | 0.0 | 0.00 | 0.00 | 0.00 | 60 | 1016.6 |
| 20260508034930 | 69 | 289 | 0.0 | 0.0 | 0.00 | 0.00 | 0.00 | 60 | 1016.6 |
| 20260508034429 | 69 | 289 | 0.0 | 0.0 | 0.00 | 0.00 | 0.00 | 59 | 1016.6 |
| 20260508033930 | 69 | 299 | 0.0 | 0.0 | 0.00 | 0.00 | 0.00 | 58 | 1016.6 |
| 20260508033429 | 69 | 252 | 4.0 | 0.0 | 0.00 | 0.00 | 0.00 | 58 | 1016.3 |
| 20260508032929 | 70 | 227 | 4.0 | 0.0 | 0.00 | 0.00 | 0.00 | 60 | 1016.3 |
| 20260508032338 | 70 | 242 | 4.0 | 0.0 | 0.00 | 0.00 | 0.00 | 59 | 1016.3 |